CFG162 EDDF-MMUN

Flight info

Callsign CFG162
Flight time N/A
Altitude 32000
Route ULKIG4L/18 ULKIG Y180 DIK UN857 TOLVU DCT RAPOR DCT GIMER/N0468F330 DCT ESTOC DCT PON DCT DITAL DCT GODIX DCT DIDAK DCT AKEMO/N0471F350 DCT RIVAK/M082F340 DCT SIVIR DCT PASAS DCT 42N020W/M082F360 39N030W 36N040W 33N050W/M082F380 3030N06000W DCT GECAL DCT DUNIG DCT GRATX/N0468F400 Y642 LULLS Y262 MAXIM DCT MUPKI UB879 NOSAT NOSAT1B
Aircraft A339/H-SADE1E2E3GHIJ3J5M1P2RWXY/LB2D1

Departure

Time 2026-05-05 21:55
Airport Frankfurt Main Airport (EDDF)

Arrival

Time N/A
Airport Cancún International Airport (MMUN)
Time Latitude Longitude Altitude Speed Heading
2026-05-05 21:52 50.03620 8.54159 351 ft 17 kts 250°
2026-05-05 21:52 50.03577 8.53980 349 ft 17 kts 249°
2026-05-05 21:52 50.03533 8.53801 348 ft 17 kts 250°
2026-05-05 21:53 50.03490 8.53619 348 ft 17 kts 250°
2026-05-05 21:53 50.03447 8.53436 347 ft 18 kts 250°
2026-05-05 21:53 50.03402 8.53249 346 ft 18 kts 249°
2026-05-05 21:53 50.03355 8.53055 346 ft 20 kts 251°
2026-05-05 21:54 50.03307 8.52851 345 ft 20 kts 250°
2026-05-05 21:54 50.03254 8.52655 344 ft 18 kts 229°
2026-05-05 21:54 50.03139 8.52595 344 ft 17 kts 181°
2026-05-05 21:54 50.02906 8.52599 343 ft 60 kts 180°
2026-05-05 21:55 50.02301 8.52607 342 ft 112 kts 180°
2026-05-05 21:55 50.01347 8.52617 340 ft 157 kts 180°
2026-05-05 21:55 50.00174 8.52631 593 ft 173 kts 180°
2026-05-05 21:55 49.98995 8.52667 1129 ft 169 kts 179°
2026-05-05 21:56 49.97817 8.52746 1546 ft 176 kts 179°
2026-05-05 21:56 49.96576 8.52844 1991 ft 181 kts 179°
2026-05-05 21:56 49.95285 8.52944 2303 ft 191 kts 180°
2026-05-05 21:56 49.93917 8.53044 2558 ft 204 kts 180°
2026-05-05 21:57 49.92458 8.53148 2813 ft 218 kts 180°
2026-05-05 21:57 49.90899 8.53260 3087 ft 233 kts 180°
2026-05-05 21:57 49.89290 8.53376 3369 ft 247 kts 180°
2026-05-05 21:57 49.87533 8.53368 3762 ft 257 kts 191°
2026-05-05 21:58 49.85787 8.52689 4332 ft 258 kts 201°
2026-05-05 21:58 49.84092 8.51739 4923 ft 260 kts 203°
2026-05-05 21:58 49.82407 8.50763 5520 ft 262 kts 203°
2026-05-05 21:58 49.80693 8.49778 6116 ft 263 kts 202°
2026-05-05 21:59 49.78967 8.48797 6694 ft 265 kts 202°
2026-05-05 21:59 49.77255 8.47830 7246 ft 266 kts 202°
2026-05-05 21:59 49.75494 8.46839 7800 ft 268 kts 202°
2026-05-05 21:59 49.73771 8.45800 8324 ft 269 kts 211°
2026-05-05 22:00 49.72403 8.43891 8821 ft 268 kts 239°
2026-05-05 22:00 49.71760 8.41229 9350 ft 269 kts 263°
2026-05-05 22:00 49.71612 8.38352 9883 ft 271 kts 265°
2026-05-05 22:00 49.71462 8.35430 10404 ft 273 kts 264°
2026-05-05 22:01 49.71297 8.32465 10915 ft 276 kts 263°
2026-05-05 22:01 49.71130 8.29523 11392 ft 279 kts 263°
2026-05-05 22:01 49.70958 8.26517 11881 ft 282 kts 263°
2026-05-05 22:01 49.70853 8.23478 12361 ft 286 kts 270°
2026-05-05 22:02 49.71049 8.20406 12838 ft 290 kts 278°
2026-05-05 22:02 49.71493 8.17353 13310 ft 294 kts 281°
2026-05-05 22:02 49.71988 8.14295 13787 ft 296 kts 282°
2026-05-05 22:02 49.72492 8.11208 14258 ft 299 kts 282°
2026-05-05 22:03 49.72996 8.08099 14722 ft 302 kts 282°
2026-05-05 22:03 49.73506 8.04928 15190 ft 304 kts 282°
2026-05-05 22:03 49.74012 8.01762 15634 ft 307 kts 282°
2026-05-05 22:03 49.74520 7.98557 16050 ft 310 kts 281°
2026-05-05 22:04 49.75037 7.95300 16469 ft 313 kts 281°
2026-05-05 22:04 49.75555 7.92025 16894 ft 316 kts 281°
2026-05-05 22:04 49.76095 7.88713 17318 ft 319 kts 285°
2026-05-05 22:04 49.77039 7.85598 17695 ft 327 kts 302°
2026-05-05 22:05 49.78559 7.82939 17944 ft 338 kts 316°
2026-05-05 22:05 49.80373 7.80537 18150 ft 349 kts 318°
2026-05-05 22:05 49.82256 7.78116 18344 ft 360 kts 318°
2026-05-05 22:05 49.84215 7.75574 18539 ft 370 kts 318°
2026-05-05 22:06 49.86042 7.72724 18724 ft 378 kts 304°
2026-05-05 22:06 49.87342 7.69201 18909 ft 384 kts 289°
2026-05-05 22:06 49.88100 7.65200 19100 ft 392 kts 281°
2026-05-05 22:06 49.88727 7.61025 19284 ft 402 kts 281°
2026-05-05 22:07 49.89357 7.56752 19463 ft 412 kts 281°
2026-05-05 22:07 49.90009 7.52367 19640 ft 422 kts 281°
2026-05-05 22:07 49.90675 7.47947 19913 ft 428 kts 281°
2026-05-05 22:07 49.91364 7.43407 20327 ft 431 kts 282°
2026-05-05 22:08 49.92045 7.38928 20742 ft 433 kts 282°
2026-05-05 22:08 49.92742 7.34338 21127 ft 436 kts 281°
2026-05-05 22:08 49.93443 7.29721 21499 ft 440 kts 281°
2026-05-05 22:08 49.94151 7.25048 21883 ft 442 kts 281°
2026-05-05 22:09 49.94848 7.20429 22243 ft 445 kts 281°
2026-05-05 22:09 49.95552 7.15744 22571 ft 448 kts 281°
2026-05-05 22:09 49.96258 7.11048 22893 ft 451 kts 281°
2026-05-05 22:09 49.96977 7.06242 23226 ft 454 kts 281°
2026-05-05 22:10 49.97689 7.01462 23556 ft 456 kts 281°
2026-05-05 22:10 49.98397 6.96645 23871 ft 459 kts 279°
2026-05-05 22:10 49.98901 6.91775 24189 ft 460 kts 274°
2026-05-05 22:10 49.99130 6.86809 24506 ft 461 kts 269°
2026-05-05 22:11 49.99087 6.81829 24812 ft 462 kts 265°
2026-05-05 22:11 49.98943 6.76836 25106 ft 465 kts 265°
2026-05-05 22:11 49.98778 6.71824 25384 ft 467 kts 265°
2026-05-05 22:11 49.98613 6.66767 25657 ft 470 kts 265°
2026-05-05 22:12 49.98420 6.61730 25916 ft 472 kts 262°
2026-05-05 22:12 49.97894 6.56680 26173 ft 473 kts 255°
2026-05-05 22:12 49.97002 6.51812 26434 ft 473 kts 248°
2026-05-05 22:12 49.95769 6.47043 26677 ft 474 kts 244°
2026-05-05 22:13 49.94463 6.42401 26953 ft 476 kts 244°
2026-05-05 22:13 49.93114 6.37673 27261 ft 476 kts 244°
2026-05-05 22:13 49.91877 6.33322 27608 ft 476 kts 243°
2026-05-05 22:13 49.90540 6.28593 27988 ft 475 kts 243°
2026-05-05 22:14 49.89197 6.23929 28388 ft 473 kts 244°
2026-05-05 22:14 49.87870 6.19290 28740 ft 472 kts 242°
2026-05-05 22:14 49.86388 6.14755 29085 ft 471 kts 239°
2026-05-05 22:14 49.84766 6.10400 29432 ft 469 kts 236°
2026-05-05 22:15 49.82984 6.06167 29742 ft 467 kts 232°
2026-05-05 22:15 49.81098 6.02065 30039 ft 467 kts 232°
2026-05-05 22:15 49.79210 5.97966 30292 ft 468 kts 232°
2026-05-05 22:15 49.77372 5.93801 30506 ft 470 kts 234°
2026-05-05 22:16 49.75661 5.89464 30753 ft 472 kts 238°
2026-05-05 22:16 49.74106 5.84990 31012 ft 473 kts 241°
2026-05-05 22:16 49.72710 5.80384 31237 ft 475 kts 244°
2026-05-05 22:16 49.71471 5.75626 31448 ft 476 kts 248°
2026-05-05 22:17 49.70364 5.70863 31646 ft 477 kts 248°
2026-05-05 22:17 49.69247 5.66015 31790 ft 478 kts 248°
2026-05-05 22:17 49.68137 5.61206 31798 ft 478 kts 248°
2026-05-05 22:18 49.65880 5.51507 31802 ft 479 kts 248°
2026-05-05 22:18 49.63623 5.41884 31804 ft 479 kts 248°
2026-05-05 22:19 49.61429 5.32314 31804 ft 480 kts 250°
2026-05-05 22:19 49.59389 5.22549 31805 ft 479 kts 250°
2026-05-05 22:20 49.57591 5.12683 31806 ft 480 kts 252°
2026-05-05 22:20 49.55841 5.02815 31808 ft 479 kts 253°
2026-05-05 22:21 49.54074 4.92903 31811 ft 480 kts 252°
2026-05-05 22:21 49.52304 4.83038 31815 ft 480 kts 253°
2026-05-05 22:22 49.50515 4.73125 31813 ft 482 kts 253°
2026-05-05 22:22 49.48725 4.63253 31812 ft 484 kts 253°
2026-05-05 22:23 49.46909 4.53283 31815 ft 484 kts 253°
2026-05-05 22:23 49.45082 4.43310 31814 ft 484 kts 253°
2026-05-05 22:24 49.43288 4.33566 31812 ft 485 kts 252°
2026-05-05 22:24 49.41444 4.23614 31811 ft 485 kts 252°
2026-05-05 22:25 49.39593 4.13669 31813 ft 485 kts 252°
2026-05-05 22:25 49.37738 4.03764 31809 ft 483 kts 253°
2026-05-05 22:25 49.36818 3.98832 31809 ft 470 kts 254°